This is the latest recevied weather packets stored in our database for station/object K3BAY-1. If no packets are shown the sender has not sent any weather packets the latest 10 day(s).
| Time | Temp. | Humidity | Pressure | Rain* | Wind** | Luminosity | Snow |
|---|---|---|---|---|---|---|---|
| 1777821540 | 11.67° C | 46% | 1014.6 hPa | 0 mm | - | 54 W/m² | - |
| 1777821238 | 11.11° C | 50% | 1014.6 hPa | 0 mm | - | 43 W/m² | - |
| 1777820935 | 11.11° C | 50% | 1014.9 hPa | 0 mm | - | 40 W/m² | - |
| 1777820631 | 11.67° C | 51% | 1014.6 hPa | 0 mm | - | 48 W/m² | - |
| 1777820328 | 11.11° C | 47% | 1014.9 hPa | 0 mm | - | 46 W/m² | - |
| 1777820026 | 11.11° C | 45% | 1014.9 hPa | 0 mm | - | 52 W/m² | - |
| 1777819722 | 11.11° C | 55% | 1014.6 hPa | 0 mm | - | 46 W/m² | - |
| 1777819421 | 10.56° C | 48% | 1014.9 hPa | 0 mm | - | 45 W/m² | - |
| 1777819117 | 10.56° C | 49% | 1014.9 hPa | 0 mm | - | 43 W/m² | - |
| 1777818814 | 11.11° C | 47% | 1014.9 hPa | 0 mm | - | 63 W/m² | - |
| 1777818510 | 10.56° C | 48% | 1014.9 hPa | 0 mm | - | 59 W/m² | - |
| 1777818208 | 10.56° C | 54% | 1014.6 hPa | 0 mm | - | 51 W/m² | - |
| 1777817904 | 10° C | 55% | 1014.2 hPa | 0 mm | - | 63 W/m² | - |
| 1777817602 | 11.11° C | 48% | 1014.2 hPa | 0 mm | - | 69 W/m² | - |
| 1777817298 | 10.56° C | 50% | 1014.6 hPa | 0 mm | - | 53 W/m² | - |
| 1777816995 | 10.56° C | 52% | 1014.2 hPa | 0 mm | - | 60 W/m² | - |
| 1777816691 | 10.56° C | 51% | 1014.2 hPa | 0 mm | - | 58 W/m² | - |
| 1777816389 | 10.56° C | 51% | 1014.6 hPa | 0 mm | - | 64 W/m² | - |
| 1777816087 | 10.56° C | 50% | 1014.6 hPa | 0 mm | - | 47 W/m² | - |
| 1777815784 | 10° C | 52% | 1014.6 hPa | 0 mm | - | 43 W/m² | - |
| 1777815481 | 9.44° C | 56% | 1014.9 hPa | 0 mm | - | 40 W/m² | - |
| 1777815179 | 10° C | 55% | 1014.9 hPa | 0 mm | - | 42 W/m² | - |
| 1777814874 | 10° C | 54% | 1015.3 hPa | 0 mm | - | 40 W/m² | - |
| 1777814571 | 10° C | 55% | 1015.3 hPa | 0 mm | - | 39 W/m² | - |
| 1777814268 | 10° C | 55% | 1015.3 hPa | 0 mm | - | 39 W/m² | - |
* Rain latest hour (hover to see other rain measurements)
** Current wind speed in m/s (hover to see current wind gust speed)